Regional Weather Roundup
Issued by NWS

Current Version | Previous Version | Text Only | Print | Product List | Glossary On
Versions: 1 2 3 4 5 6 7 8 9 10 11 12 13 14 15 16 17 18 19 20 21 22 23 24 25 26 27 28 29 30 31 32 33 34 35 36 37 38 39 40 41 42 43 44 45 46 47 48 49 50
000
ASCA42 TJSJ 010711
RWRPR
PUERTO RICO/U.S. VIRGIN ISLANDS HOURLY WEATHER ROUNDUP
NATIONAL WEATHER SERVICE SAN JUAN PR
300 AM AST MON SEP 01 2014

PRZ001-004-010800-
PUERTO RICO

CITY           SKY/WX    TMP DP  RH WIND       PRES   REMARKS
SAN JUAN LMM   PTCLDY    79  73  83 CALM      30.00F
PONCE          CLEAR     75  72  88 CALM      29.97F
CEIBA          PTCLDY    81  72  74 E7        30.02F
$$

PRZ006-007-010800-
U.S. VIRGIN ISLANDS

CITY           SKY/WX    TMP DP  RH WIND       PRES   REMARKS
$$

HOURLY WEATHER ROUNDUP FOR THE NEWS MEDIA

CITY           SKY/WX    TMP DP  RH WIND       PRES   REMARKS
MIAMI          PTCLDY    83  74  74 E6        30.06F
ORLANDO        CLEAR     79  74  84 CALM      30.10F
NEW YORK       CLOUDY    75  71  87 SW7       30.00S
NEWARK         CLOUDY    75  71  87 SW9       29.99F
CHICAGO        PTCLDY    75  68  78 S12       29.84F
HARTFORD       CLOUDY    73  71  93 SW6       29.96F
BOSTON         MOCLDY    73  70  90 SW13      29.94S
DALLAS         CLEAR     80  68  66 S18       29.90S
PHILADELPHIA   CLOUDY    74  72  93 S7        30.01S


USA.gov is the U.S. government's official web portal to all federal, state and local government web resources and services.